sat.trackr.live / text

‹ back to catalog

STARLINK-34230

NORAD 64137 · 2025-111Q

PAYLOAD ACTIVE UNKNOWN

§ Identity

Operator
Country
US
Launch date
2025-05-24
Launch site
AFETR
Launch vehicle
Mass (kg)
RCS (m²)

Purposes: comms

External: N2YO · Heavens-Above · Gunter

§ Orbital elements

Epoch: 2026-07-16T22:54:56.664000Z

Period
88.99 min
Inclination
42.9721°
Eccentricity
0.0021998
Mean motion
16.18134351 rev/d
Perigee alt
210.1 km
Apogee alt
239.1 km
Semi-major
6,602.8 km
B*
4.0266e-3
RAAN
12.2872°
Arg perigee
305.8552°
Mean anomaly
54.0289°
Rev number
6,586

§ Raw data

STARLINK-342301 64137U 25111Q   26197.95482250  .07430524  89776-5  40266-2 0  99982 64137  42.9721  12.2872 0021998 305.8552  54.0289 16.18134351 65863

JSON: /api/v1/satellites/64137 · /tle

For live sub-satellite position, see the globe view (requires WebGL).

§ Visibility from observer

Set your observer location to see the next 7 days of passes ≥ 10°. The values pass through the URL so the page stays shareable.

No JS? Fill the form by hand. The geolocation button needs JavaScript.